Location: Winston-Salem
(0.0000°N, 0.0000°E)
Time: 13:46:50
(UTC+00:00)

Hubble Space Telescope - Visible Passes

Search period start: 26 June 2019 00:00
Search period end: 06 July 2019 00:00
Orbit: 536 x 540 km, 28.5° (Epoch: 26 June)

Date Brightness Start Highest point End Pass type
(mag) Time Alt. Az. Time Alt. Az. Time Alt. Az.
26 Jun 1.4 04:09:33 54° NE 04:09:33 54° NE 04:13:15 10° ESE visible
27 Jun 2.6 04:00:57 26° ESE 04:00:57 26° ESE 04:02:49 10° ESE visible
27 Jun 2.5 05:37:16 10° WSW 05:39:53 16° SSW 05:42:31 10° SSE visible
28 Jun 3.6 03:52:13 10° SE 03:52:13 10° SE 03:52:16 10° SE visible
28 Jun 2.8 05:27:49 10° SW 05:29:26 12° SSW 05:31:03 10° S visible
